TimePST,TemperatureF,Dew PointF,Humidity,Sea Level PressureIn,VisibilityMPH,Wind Direction,Wind SpeedMPH,Gust SpeedMPH,PrecipitationIn,Events,Conditions,WindDirDegrees,DateUTC
12:23 AM,35.1,33.1,92,30.16,0.2,Calm,Calm,-,N/A,Fog,Fog,0,2014-01-19 08:23:00
12:36 AM,35.1,34.0,96,30.16,0.2,Calm,Calm,-,N/A,Fog,Fog,0,2014-01-19 08:36:00
12:53 AM,35.1,34.0,96,30.17,0.2,Calm,Calm,-,N/A,Fog,Fog,0,2014-01-19 08:53:00
1:12 AM,35.1,33.1,92,30.16,0.2,Calm,Calm,-,N/A,Fog,Fog,0,2014-01-19 09:12:00
1:53 AM,35.1,34.0,96,30.17,0.2,Calm,Calm,-,N/A,Fog,Fog,0,2014-01-19 09:53:00
2:53 AM,35.1,34.0,96,30.18,0.2,Calm,Calm,-,N/A,Fog,Fog,0,2014-01-19 10:53:00
3:10 AM,35.1,34.0,96,30.17,0.2,Calm,Calm,-,N/A,Fog,Fog,0,2014-01-19 11:10:00
3:53 AM,35.1,34.0,96,30.17,0.2,Calm,Calm,-,N/A,Fog,Fog,0,2014-01-19 11:53:00
4:38 AM,35.1,33.1,92,30.16,0.2,Calm,Calm,-,N/A,Fog,Fog,0,2014-01-19 12:38:00
4:53 AM,35.1,33.1,92,30.17,0.2,NE,3.5,-,N/A,Fog,Fog,40,2014-01-19 12:53:00
5:53 AM,35.1,34.0,96,30.18,0.2,Calm,Calm,-,N/A,Fog,Fog,0,2014-01-19 13:53:00
6:10 AM,35.1,33.1,92,30.17,0.5,WSW,3.5,-,N/A,Fog,Fog,240,2014-01-19 14:10:00
6:19 AM,35.1,33.1,92,30.18,0.2,WSW,3.5,-,N/A,Fog,Fog,250,2014-01-19 14:19:00
6:53 AM,34.0,33.1,96,30.19,0.2,Calm,Calm,-,N/A,Fog,Fog,0,2014-01-19 14:53:00
7:53 AM,35.1,33.1,92,30.20,0.2,SW,3.5,-,N/A,Fog,Fog,230,2014-01-19 15:53:00
8:53 AM,35.1,33.1,92,30.22,0.2,Calm,Calm,-,N/A,Fog,Fog,0,2014-01-19 16:53:00
9:53 AM,36.0,34.0,93,30.23,0.5,Calm,Calm,-,N/A,Fog,Fog,0,2014-01-19 17:53:00
10:26 AM,36.0,34.0,93,30.22,1.2,Calm,Calm,-,N/A,,Overcast,0,2014-01-19 18:26:00
10:40 AM,37.0,34.0,89,30.22,2.0,Calm,Calm,-,N/A,,Overcast,0,2014-01-19 18:40:00
10:53 AM,36.0,34.0,93,30.24,1.8,Calm,Calm,-,N/A,,Overcast,0,2014-01-19 18:53:00
11:07 AM,37.0,35.1,93,30.22,2.5,Calm,Calm,-,N/A,,Overcast,0,2014-01-19 19:07:00
11:15 AM,37.0,35.1,93,30.23,3.0,Calm,Calm,-,N/A,,Overcast,0,2014-01-19 19:15:00
11:53 AM,39.0,36.0,89,30.22,4.0,Calm,Calm,-,N/A,,Overcast,0,2014-01-19 19:53:00
12:53 PM,39.9,37.0,89,30.19,2.5,Calm,Calm,-,N/A,,Overcast,0,2014-01-19 20:53:00
1:02 PM,41.0,37.0,86,30.18,4.0,Calm,Calm,-,N/A,,Overcast,0,2014-01-19 21:02:00
1:43 PM,42.1,37.9,85,30.17,5.0,SW,3.5,-,N/A,,Mostly Cloudy,220,2014-01-19 21:43:00
1:53 PM,43.0,37.9,82,30.18,5.0,SW,4.6,-,N/A,,Haze,230,2014-01-19 21:53:00
2:53 PM,44.1,39.0,82,30.17,8.0,SW,4.6,-,N/A,,Clear,220,2014-01-19 22:53:00
3:53 PM,46.0,39.0,76,30.17,10.0,Calm,Calm,-,N/A,,Clear,0,2014-01-19 23:53:00
4:53 PM,46.0,39.0,76,30.16,10.0,Calm,Calm,-,N/A,,Clear,0,2014-01-20 00:53:00
5:53 PM,43.0,37.9,82,30.17,6.0,Calm,Calm,-,N/A,,Haze,0,2014-01-20 01:53:00
6:53 PM,41.0,37.0,86,30.18,5.0,Calm,Calm,-,N/A,,Clear,0,2014-01-20 02:53:00
7:53 PM,39.0,35.1,86,30.19,6.0,Calm,Calm,-,N/A,,Clear,0,2014-01-20 03:53:00
8:53 PM,37.0,34.0,89,30.21,4.0,Calm,Calm,-,N/A,,Clear,0,2014-01-20 04:53:00
9:24 PM,36.0,33.1,89,30.20,1.8,Calm,Calm,-,N/A,,Clear,0,2014-01-20 05:24:00
9:29 PM,36.0,33.1,89,30.20,1.0,Calm,Calm,-,N/A,,Mist,0,2014-01-20 05:29:00
9:36 PM,36.0,34.0,93,30.20,0.5,Calm,Calm,-,N/A,Fog,Fog,0,2014-01-20 05:36:00
9:44 PM,35.1,33.1,92,30.20,0.2,Calm,Calm,-,N/A,Fog,Fog,0,2014-01-20 05:44:00
9:53 PM,35.1,33.1,92,30.22,0.2,Calm,Calm,-,N/A,Fog,Fog,0,2014-01-20 05:53:00
10:26 PM,36.0,34.0,93,30.21,0.2,NNE,3.5,-,N/A,Fog,Fog,20,2014-01-20 06:26:00
10:53 PM,35.1,34.0,96,30.23,0.2,SW,3.5,-,N/A,Fog,Fog,230,2014-01-20 06:53:00
11:12 PM,36.0,34.0,93,30.22,0.2,Calm,Calm,-,N/A,Fog,Fog,0,2014-01-20 07:12:00
11:40 PM,35.1,34.0,96,30.22,0.2,Calm,Calm,-,N/A,Fog,Fog,0,2014-01-20 07:40:00
11:53 PM,35.1,34.0,96,30.23,0.2,Calm,Calm,-,N/A,Fog,Fog,0,2014-01-20 07:53:00